Hawarden, United Kingdom

3:39 PM GMT on February 20, 2017 (GMT +0000)
Hawarden

Weather History for EGNR - August, 2014

Change the Weather History Date:

Thursday, August 7, 2014

  Actual Average (EGGP) Record (EGGP)
Temperature  
Mean Temperature 61 °F -  
Max Temperature 69 °F 66 °F 80 °F (1997)
Min Temperature 51 °F 54 °F 48 °F (2015)
Degree Days  
Heating Degree Days 4    
Growing Degree Days 11 (Base 50)    
Moisture  
Dew Point 52 °F    
Average Humidity 65    
Maximum Humidity 94    
Minimum Humidity 38    
Precipitation  
Precipitation 0.00 in - - ()
Sea Level Pressure  
Sea Level Pressure 29.98 in    
Wind  
Wind Speed 5 mph ()    
Max Wind Speed 13 mph    
Max Gust Speed -    
Visibility 9.9 miles    
Events Rain    
Averages and records for this station are not official NWS values.
T = Trace of Precipitation, MM = Missing Value Source: Averaged Metar Reports

Daily Weather History Graph

Daily Weather History Graph

Search for Another Location

Airport or City:

Trip Planner

Search our weather history database for the weather conditions in past years. The results will help you decide how hot, cold, wet, or windy it might be!

Date:

Astronomy

Aug. 07, 2014 Rise Set
Actual Time 5:38 AM BST 8:55 PM BST
Civil Twilight 4:57 AM BST 9:36 PM BST
Nautical Twilight 4:01 AM BST 10:32 PM BST
Astronomical Twilight 2:42 AM BST 11:48 PM BST
Moon 6:05 PM BST (8/7) 1:48 AM BST (8/7)
Length of Visible Light 16h 39m
Length of Day
15h 17m
Waxing Gibbous, 84% of the Moon is Illuminated
Aug 7
Waxing Gibbous
Aug 10
Full
Aug 17
Last Quarter
Aug 25
New
Sep 2
First Quarter

Hourly Weather History & Observations

Time (BST) Temp. Dew Point Humidity Pressure Visibility Wind Dir Wind Speed Gust Speed Precip Events Conditions
12:00 AM 60 °F 56 °F 82% 29.91 in 22 mi West 2.3 mph - - Rain Rain
1:00 AM 58 °F 56 °F 90% 29.91 in 15 mi WNW 2.3 mph - -   Partly Cloudy
2:00 AM 57 °F 54 °F 88% 29.92 in 17 mi WNW 2.3 mph - -   Scattered Clouds
3:00 AM 58 °F 54 °F 84% 29.92 in 16 mi WNW 3.5 mph - -   Partly Cloudy
4:00 AM 56 °F 54 °F 90% 29.92 in 22 mi West 3.5 mph - -   Partly Cloudy
5:00 AM 55 °F 53 °F 88% 29.93 in 16 mi WSW 3.5 mph - -   Partly Cloudy
6:00 AM 57 °F 55 °F 89% 29.94 in 25 mi West 2.3 mph - -   Partly Cloudy
6:20 AM 57.2 °F 55.4 °F 94% 29.95 in 6.2 mi West 3.5 mph - N/A   Scattered Clouds
6:50 AM 59.0 °F 55.4 °F 88% 29.95 in 6.2 mi Variable 2.3 mph - N/A   Scattered Clouds
7:00 AM 59 °F 55 °F 82% 29.95 in 16 mi West 2.3 mph - -  
7:20 AM 59.0 °F 57.2 °F 94% 29.95 in 6.2 mi SW 3.5 mph - N/A   Scattered Clouds
7:50 AM 60.8 °F 55.4 °F 82% 29.95 in 6.2 mi WSW 4.6 mph - N/A   Scattered Clouds
8:00 AM 62 °F 56 °F 74% 29.96 in 22 mi WSW 4.6 mph - -   Scattered Clouds
8:20 AM 62.6 °F 57.2 °F 82% 29.98 in 6.2 mi WSW 4.6 mph - N/A   Scattered Clouds
8:50 AM 62.6 °F 57.2 °F 82% 29.98 in 6.2 mi North 4.6 mph - N/A   Scattered Clouds
9:00 AM 62 °F 55 °F 73% 29.98 in 22 mi North 4.6 mph - -   Scattered Clouds
9:50 AM 64.4 °F 55.4 °F 73% 29.98 in 6.2 mi WNW 8.1 mph - N/A   Scattered Clouds
10:00 AM 63 °F 53 °F 61% 29.99 in 19 mi WNW 6.9 mph - -   Scattered Clouds
10:20 AM 62.6 °F 55.4 °F 77% 29.98 in 6.2 mi NW 12.7 mph - N/A   Scattered Clouds
10:50 AM 64.4 °F 55.4 °F 73% 30.01 in 6.2 mi NNW 10.4 mph - N/A   Scattered Clouds
11:00 AM 64 °F 53 °F 57% 29.99 in 19 mi NNW 11.5 mph - -   Scattered Clouds
11:20 AM 66.2 °F 53.6 °F 64% 30.01 in 6.2 mi North 11.5 mph - N/A   Scattered Clouds
11:50 AM 66.2 °F 51.8 °F 60% 30.01 in 6.2 mi NNW 10.4 mph - N/A   Scattered Clouds
12:00 PM 65 °F 51 °F 50% 30.00 in 14 mi NW 9.2 mph - -   Scattered Clouds
12:20 PM 66.2 °F 53.6 °F 64% 30.01 in 6.2 mi North 10.4 mph - N/A   Scattered Clouds
12:50 PM 68.0 °F 53.6 °F 60% 29.98 in 6.2 mi NW 9.2 mph - N/A   Scattered Clouds
1:00 PM 66 °F 50 °F 45% 29.99 in 22 mi NNW 8.1 mph - -   Scattered Clouds
1:20 PM 66.2 °F 50.0 °F 56% 29.98 in 6.2 mi NNW 9.2 mph - N/A   Scattered Clouds
1:50 PM 68.0 °F 51.8 °F 56% 30.01 in 6.2 mi NNW 9.2 mph - N/A   Scattered Clouds
2:00 PM 66 °F 49 °F 44% 30.00 in 17 mi NNW 8.1 mph - -   Partly Cloudy
2:20 PM 68.0 °F 50.0 °F 52% 30.01 in 6.2 mi NNW 8.1 mph - N/A   Scattered Clouds
2:50 PM 68.0 °F 51.8 °F 56% 29.98 in 6.2 mi NNW 8.1 mph - N/A   Scattered Clouds
3:00 PM 68 °F 49 °F 40% 29.99 in 14 mi NNW 6.9 mph - -   Partly Cloudy
3:20 PM 68.0 °F 51.8 °F 56% 29.98 in 6.2 mi North 6.9 mph - N/A   Scattered Clouds
3:50 PM 68.0 °F 51.8 °F 56% 30.01 in 6.2 mi NNW 9.2 mph - N/A   Partly Cloudy
4:00 PM 68 °F 51 °F 43% 30.00 in 19 mi NNW 8.1 mph - -   Mostly Cloudy
4:20 PM 68.0 °F 51.8 °F 56% 30.01 in 6.2 mi NW 9.2 mph - N/A   Partly Cloudy
4:50 PM 68.0 °F 51.8 °F 56% 30.01 in 6.2 mi NNW 8.1 mph - N/A   Partly Cloudy
5:00 PM 67 °F 50 °F 44% 30.00 in 19 mi North 8.1 mph - -   Partly Cloudy
5:20 PM 66.2 °F 48.2 °F 52% 30.01 in 6.2 mi NNW 9.2 mph - N/A   Partly Cloudy
5:50 PM 66.2 °F 50.0 °F 56% 30.01 in 6.2 mi North 6.9 mph - N/A   Partly Cloudy
6:00 PM 66 °F 47 °F 39% 30.00 in 22 mi NNW 6.9 mph - -   Partly Cloudy
6:20 PM 66.2 °F 48.2 °F 52% 29.98 in 6.2 mi NNW 8.1 mph - N/A   Partly Cloudy
7:00 PM 66 °F 47 °F 38% 29.99 in 25 mi NNW 5.8 mph - -   Mostly Cloudy
7:20 PM 66.2 °F 48.2 °F 52% 29.98 in 6.2 mi NNW 5.8 mph - N/A   Partly Cloudy
7:50 PM 66.2 °F 50.0 °F 56% 29.98 in - North 4.6 mph - N/A   Clear
8:00 PM 65 °F 47 °F 41% 30.00 in 22 mi North 3.5 mph - -  
8:20 PM 64.4 °F 50.0 °F 59% 29.98 in - NNW 4.6 mph - N/A   Clear
8:50 PM 62.6 °F 50.0 °F 63% 29.98 in - NW 2.3 mph - N/A   Clear
9:00 PM 60 °F 49 °F 56% 30.00 in 25 mi WNW 2.3 mph - -  
10:00 PM 53 °F 49 °F 82% 29.99 in 22 mi Calm Calm - -   Scattered Clouds
11:00 PM 51 °F 47 °F 81% 29.99 in 19 mi West 1.2 mph - -   Mostly Cloudy